Location: Basse Occidentale du Courleau
(48.3833°N, 4.8333°W)
Time: 04:01:18
(UTC+00:00)

NOSS 0 Rocket - Pass Details

Date: 05 July 2020
Orbit: 934 x 955 km, 70.0° (Epoch: 11 August)

Event Time Altitude Azimuth Distance (km) Brightness Sun altitude
Exits shadow 22:07:30 15° 170° (S) 2,323 5.4 -12.7°
Maximum altitude 22:12:09 39° 108° (ESE) 1,378 4.5 -13.1°
Drops below altitude 10° 22:17:47 10° 42° (NE) 2,663 6.5 -13.5°
Sets 22:20:28 0° 35° (NE) 3,615 7.3 -13.7°
